Klawock, AK

5:53 PM AKDT on April 28, 2017 (GMT -0800)
Klawock

Weather History for PAKW - November, 2011

Change the Weather History Date:

Wednesday, November 23, 2011

  Actual Average Record
Temperature  
Mean Temperature 32 °F -  
Max Temperature 34 °F 40 °F 53 °F (2005)
Min Temperature 30 °F 33 °F 19 °F (2006)
Degree Days  
Heating Degree Days 33    
Moisture  
Dew Point 30 °F    
Average Humidity 91    
Maximum Humidity 100    
Minimum Humidity 75    
Precipitation  
Precipitation 0.00 in - - ()
Sea Level Pressure  
Sea Level Pressure 29.08 in    
Wind  
Wind Speed 6 mph (South)    
Max Wind Speed 15 mph    
Max Gust Speed 28 mph    
Visibility 3 miles    
Events Fog , Snow    
Averages and records for this station are not official NWS values.
T = Trace of Precipitation, MM = Missing Value Source: NWS Daily Summary

Daily Weather History Graph

Daily Weather History Graph

Search for Another Location

Airport or City:

Trip Planner

Search our weather history database for the weather conditions in past years. The results will help you decide how hot, cold, wet, or windy it might be!

Date:

Astronomy

Nov. 23, 2011 Rise Set
Actual Time 7:42 AM AKST 3:34 PM AKST
Civil Twilight 6:59 AM AKST 4:17 PM AKST
Nautical Twilight 6:12 AM AKST 5:03 PM AKST
Astronomical Twilight 5:29 AM AKST 5:47 PM AKST
Moon 5:49 AM AKST (11/23) 2:24 PM AKST (11/23)
Length of Visible Light 9h 18m
Length of Day
7h 51m
Waning Crescent, 3% of the Moon is Illuminated
Nov 23
Waning Crescent
Nov 24
New
Dec 2
First Quarter
Dec 10
Full
Dec 17
Last Quarter

Hourly Weather History & Observations

Time (AKST) Temp. Windchill Dew Point Humidity Pressure Visibility Wind Dir Wind Speed Gust Speed Precip Events Conditions
12:53 AM 34.0 °F 28.0 °F 27.0 °F 75% 29.13 in 10.0 mi Variable 6.9 mph - N/A   Scattered Clouds
1:15 AM 33.8 °F 27.0 °F 28.4 °F 81% 29.13 in 2.5 mi SSW 8.1 mph - 0.00 in Snow Light Snow
1:29 AM 33.8 °F 27.0 °F 30.2 °F 87% 29.14 in 1.2 mi SSW 8.1 mph 18.4 mph 0.00 in Snow Light Snow
1:36 AM 32.0 °F 27.5 °F 30.2 °F 93% 29.14 in 0.8 mi Variable 4.6 mph - 0.00 in Snow Light Snow
1:49 AM 32.0 °F 27.5 °F 30.2 °F 93% 29.14 in 1.2 mi South 4.6 mph - 0.00 in Snow Light Snow
1:53 AM 32.0 °F 28.7 °F 30.9 °F 96% 29.14 in 1.8 mi South 3.5 mph - 0.00 in Snow Light Snow
1:56 AM 32.0 °F 26.4 °F 30.2 °F 93% 29.14 in 3.0 mi Variable 5.8 mph - 0.00 in Snow Light Snow
2:12 AM 32.0 °F - 30.2 °F 93% 29.14 in 3.0 mi Calm Calm - 0.00 in Snow Light Snow
2:37 AM 32.0 °F 24.8 °F 30.2 °F 93% 29.13 in 1.8 mi South 8.1 mph - 0.00 in Snow Light Snow
2:44 AM 32.0 °F 26.4 °F 30.2 °F 93% 29.13 in 0.8 mi Variable 5.8 mph - 0.00 in Snow Light Snow
2:50 AM 32.0 °F 28.7 °F 30.2 °F 93% 29.12 in 1.0 mi Variable 3.5 mph - 0.00 in Snow Light Snow
2:55 AM 32.0 °F 28.7 °F 30.2 °F 93% 29.12 in 1.8 mi Variable 3.5 mph - 0.00 in Snow Light Snow
2:58 AM 32.0 °F 28.7 °F 30.2 °F 93% 29.12 in 3.0 mi Variable 3.5 mph - 0.00 in Snow Light Snow
3:05 AM 32.0 °F 25.6 °F 30.2 °F 93% 29.11 in 2.0 mi Variable 6.9 mph - 0.00 in Snow Light Snow
3:08 AM 32.0 °F 24.8 °F 30.2 °F 93% 29.11 in 1.0 mi SSE 8.1 mph - 0.00 in Snow Light Snow
3:10 AM 32.0 °F 25.6 °F 30.2 °F 93% 29.11 in 0.8 mi SSE 6.9 mph - 0.00 in Snow Light Snow
3:21 AM 32.0 °F 24.2 °F 30.2 °F 93% 29.12 in 0.2 mi SW 9.2 mph - 0.00 in Fog , Snow Heavy Snow
3:37 AM 32.0 °F 27.5 °F 30.2 °F 93% 29.12 in 0.5 mi SSW 4.6 mph - 0.00 in Fog , Snow Snow
3:53 AM 30.9 °F 27.5 °F 30.0 °F 96% 29.12 in 0.5 mi Variable 3.5 mph - 0.00 in Fog , Snow Snow
4:40 AM 30.2 °F 26.7 °F 30.2 °F 100% 29.10 in 0.8 mi Variable 3.5 mph - 0.00 in Snow Light Snow
4:46 AM 30.2 °F 25.4 °F 28.4 °F 93% 29.10 in 1.2 mi Variable 4.6 mph - 0.00 in Snow Light Snow
4:49 AM 30.2 °F 26.7 °F 28.4 °F 93% 29.10 in 1.8 mi Variable 3.5 mph - 0.00 in Snow Light Snow
4:53 AM 30.9 °F 27.5 °F 28.9 °F 92% 29.10 in 3.0 mi Variable 3.5 mph - 0.00 in Snow Light Snow
5:00 AM 30.2 °F 25.4 °F 28.4 °F 93% 29.09 in 7.0 mi Variable 4.6 mph - 0.00 in Snow Light Snow
5:53 AM 32.0 °F 25.6 °F 27.0 °F 82% 29.07 in 10.0 mi SSE 6.9 mph - 0.00 in   Mostly Cloudy
6:19 AM 32.0 °F 22.5 °F 28.4 °F 87% 29.09 in 2.0 mi SW 12.7 mph 20.7 mph 0.00 in Snow Light Snow
6:21 AM 30.2 °F 20.8 °F 28.4 °F 93% 29.09 in 0.8 mi SW 11.5 mph 20.7 mph 0.00 in Snow Light Snow
6:32 AM 30.2 °F 24.3 °F 30.2 °F 100% 29.09 in 0.5 mi Variable 5.8 mph 16.1 mph 0.00 in Fog , Snow Snow
6:40 AM 30.2 °F 25.4 °F 30.2 °F 100% 29.09 in 1.0 mi Variable 4.6 mph - 0.00 in Snow Light Snow
6:43 AM 30.2 °F 23.4 °F 30.2 °F 100% 29.08 in 2.0 mi SW 6.9 mph - 0.00 in Snow Light Snow
6:49 AM 30.2 °F 25.4 °F 28.4 °F 93% 29.08 in 5.0 mi Variable 4.6 mph - 0.00 in Snow Light Snow
6:53 AM 30.9 °F 25.2 °F 28.9 °F 92% 29.08 in 7.0 mi Variable 5.8 mph - 0.00 in Snow Light Snow
7:10 AM 32.0 °F 28.7 °F 28.4 °F 87% 29.07 in 8.0 mi Variable 3.5 mph - 0.00 in Snow Light Snow
7:53 AM 32.0 °F 24.8 °F 27.0 °F 82% 29.08 in 10.0 mi SSE 8.1 mph - 0.00 in   Mostly Cloudy
8:27 AM 32.0 °F 21.6 °F 28.4 °F 87% 29.09 in 1.8 mi SW 15.0 mph 25.3 mph 0.00 in Snow Light Snow
8:29 AM 32.0 °F 23.0 °F 28.4 °F 87% 29.09 in 0.8 mi SSW 11.5 mph 25.3 mph 0.00 in Snow Light Snow
8:41 AM 30.2 °F 26.7 °F 30.2 °F 100% 29.09 in 0.2 mi Variable 3.5 mph - 0.00 in Fog , Snow Snow
8:50 AM 30.2 °F - 30.2 °F 100% 29.08 in 0.5 mi Calm Calm - 0.00 in Fog , Snow Snow
8:53 AM 30.9 °F - 30.0 °F 96% 29.08 in 0.5 mi Calm Calm - 0.00 in Fog , Snow Snow
9:37 AM 30.2 °F - 30.2 °F 100% 29.09 in 1.5 mi Calm Calm - 0.00 in Snow Light Snow
9:40 AM 30.2 °F - 30.2 °F 100% 29.09 in 3.0 mi Calm Calm - 0.00 in Snow Light Snow
9:51 AM 32.0 °F 28.7 °F 30.2 °F 93% 29.09 in 2.0 mi Variable 3.5 mph - 0.00 in Snow Light Snow
9:53 AM 32.0 °F 25.6 °F 30.0 °F 92% 29.09 in 1.2 mi Variable 6.9 mph - 0.00 in Snow Light Snow
10:03 AM 32.0 °F 26.4 °F 30.2 °F 93% 29.09 in 0.8 mi Variable 5.8 mph - 0.00 in Snow Light Snow
10:22 AM 32.0 °F 28.7 °F 30.2 °F 93% 29.08 in 1.5 mi Variable 3.5 mph - 0.00 in Snow Light Snow
10:24 AM 32.0 °F 27.5 °F 30.2 °F 93% 29.08 in 3.0 mi Variable 4.6 mph - 0.00 in Snow Light Snow
10:40 AM 33.8 °F 27.7 °F 28.4 °F 81% 29.07 in 9.0 mi Variable 6.9 mph - 0.00 in   Overcast
10:53 AM 33.1 °F 26.1 °F 28.9 °F 85% 29.08 in 8.0 mi South 8.1 mph - 0.00 in Snow Light Snow
11:05 AM 33.8 °F 28.6 °F 28.4 °F 81% 29.07 in 2.5 mi SSW 5.8 mph - 0.00 in Snow Light Snow
11:24 AM 33.8 °F 27.7 °F 28.4 °F 81% 29.07 in 6.0 mi SSW 6.9 mph - 0.00 in Snow Light Snow
11:35 AM 33.8 °F 29.6 °F 28.4 °F 81% 29.07 in 10.0 mi Variable 4.6 mph - 0.00 in   Mostly Cloudy
11:53 AM 33.1 °F 27.7 °F 30.0 °F 89% 29.06 in 4.0 mi South 5.8 mph - 0.00 in Snow Light Snow
12:37 PM 33.8 °F 25.8 °F 28.4 °F 81% 29.05 in 1.8 mi SSE 10.4 mph - 0.00 in Snow Light Snow
12:41 PM 33.8 °F 27.7 °F 30.2 °F 87% 29.05 in 0.8 mi South 6.9 mph - 0.00 in Snow Light Snow
12:55 PM 33.8 °F 28.6 °F 28.4 °F 81% 29.05 in 2.0 mi Variable 5.8 mph - 0.00 in Snow Light Snow
1:02 PM 33.8 °F 27.0 °F 28.4 °F 81% 29.05 in 9.0 mi South 8.1 mph - 0.00 in   Mostly Cloudy
1:51 PM 33.8 °F 27.0 °F 28.4 °F 81% 29.04 in 1.8 mi SSE 8.1 mph - 0.00 in Snow Light Snow
1:53 PM 32.0 °F 25.6 °F 28.9 °F 88% 29.05 in 1.2 mi SE 6.9 mph - 0.00 in Snow Light Snow
2:01 PM 32.0 °F 25.6 °F 30.2 °F 93% 29.04 in 0.8 mi Variable 6.9 mph - 0.00 in Snow Light Snow
2:05 PM 32.0 °F 27.5 °F 30.2 °F 93% 29.04 in 1.8 mi Variable 4.6 mph - 0.00 in Snow Light Snow
2:12 PM 32.0 °F 27.5 °F 30.2 °F 93% 29.03 in 2.5 mi Variable 4.6 mph - 0.00 in Snow Light Snow
2:19 PM 32.0 °F 24.8 °F 30.2 °F 93% 29.03 in 6.0 mi SSE 8.1 mph - 0.00 in Snow Light Snow
2:29 PM 33.8 °F 28.6 °F 30.2 °F 87% 29.03 in 10.0 mi Variable 5.8 mph - 0.00 in   Overcast
2:43 PM 33.8 °F 27.7 °F 30.2 °F 87% 29.04 in 1.8 mi Variable 6.9 mph - 0.00 in Snow Light Snow
2:51 PM 33.8 °F 27.0 °F 30.2 °F 87% 29.04 in 0.8 mi SW 8.1 mph - 0.00 in Snow Light Snow
2:53 PM 33.1 °F 26.9 °F 30.9 °F 92% 29.05 in 1.0 mi SW 6.9 mph - 0.00 in Snow Light Snow
3:01 PM 33.8 °F 30.8 °F 30.2 °F 87% 29.04 in 2.5 mi South 3.5 mph - 0.00 in Snow Light Snow
3:08 PM 33.8 °F 27.0 °F 30.2 °F 87% 29.04 in 9.0 mi South 8.1 mph - 0.00 in   Overcast
3:18 PM 33.8 °F 27.0 °F 30.2 °F 87% 29.05 in 1.8 mi South 8.1 mph - 0.00 in Snow Light Snow
3:32 PM 32.0 °F 23.0 °F 30.2 °F 93% 29.06 in 3.0 mi SW 11.5 mph 21.9 mph 0.00 in Snow Light Snow
3:37 PM 32.0 °F 23.6 °F 30.2 °F 93% 29.05 in 2.5 mi SSW 10.4 mph 19.6 mph 0.00 in Snow Light Snow
3:40 PM 32.0 °F 24.2 °F 30.2 °F 93% 29.06 in 3.0 mi SW 9.2 mph 17.3 mph 0.00 in Snow Light Snow
3:51 PM 33.8 °F 23.9 °F 28.4 °F 81% 29.05 in 7.0 mi SSW 15.0 mph 26.5 mph 0.00 in Snow Light Snow
3:53 PM 33.1 °F 23.4 °F 28.0 °F 82% 29.05 in 7.0 mi SSW 13.8 mph 26.5 mph 0.00 in Snow Light Snow
4:00 PM 33.8 °F 25.8 °F 28.4 °F 81% 29.05 in 9.0 mi South 10.4 mph 20.7 mph 0.00 in   Overcast
4:44 PM 32.0 °F 24.8 °F 28.4 °F 87% 29.06 in 2.5 mi SSW 8.1 mph - 0.00 in Snow Light Snow
4:53 PM 30.9 °F 24.3 °F 28.9 °F 92% 29.07 in 1.2 mi South 6.9 mph - 0.00 in Snow Light Snow
4:59 PM 30.2 °F 22.6 °F 28.4 °F 93% 29.06 in 0.5 mi South 8.1 mph - 0.00 in Fog , Snow Snow
5:09 PM 30.2 °F 26.7 °F 30.2 °F 100% 29.06 in 1.0 mi Variable 3.5 mph - 0.00 in Snow Light Snow
5:18 PM 30.2 °F 26.7 °F 30.2 °F 100% 29.06 in 1.0 mi SSW 3.5 mph - 0.00 in Snow Light Snow
5:27 PM 30.2 °F 26.7 °F 30.2 °F 100% 29.06 in 1.2 mi Variable 3.5 mph - 0.00 in Snow Light Snow
5:38 PM 30.2 °F 21.9 °F 30.2 °F 100% 29.06 in 0.8 mi SSW 9.2 mph 18.4 mph 0.00 in Snow Light Snow
5:45 PM 30.2 °F 23.4 °F 30.2 °F 100% 29.07 in 0.5 mi SW 6.9 mph 18.4 mph 0.00 in Fog , Snow Snow
5:53 PM 30.9 °F 26.2 °F 30.0 °F 96% 29.06 in 0.5 mi South 4.6 mph - 0.00 in Fog , Snow Snow
6:01 PM 30.2 °F 25.4 °F 30.2 °F 100% 29.06 in 1.5 mi Variable 4.6 mph - 0.00 in Snow Light Snow
6:06 PM 30.2 °F 25.4 °F 30.2 °F 100% 29.05 in 3.0 mi SSW 4.6 mph - 0.00 in Snow Light Snow
6:16 PM 30.2 °F 24.3 °F 30.2 °F 100% 29.05 in 9.0 mi SSW 5.8 mph - 0.00 in   Overcast
6:23 PM 32.0 °F 28.7 °F 30.2 °F 93% 29.05 in 10.0 mi Variable 3.5 mph - 0.00 in   Overcast
6:53 PM 32.0 °F 27.5 °F 30.0 °F 92% 29.05 in 9.0 mi Variable 4.6 mph - 0.00 in   Overcast
7:13 PM 33.8 °F 27.7 °F 30.2 °F 87% 29.05 in 5.0 mi Variable 6.9 mph - 0.00 in Snow Light Snow
7:53 PM 33.1 °F 26.9 °F 30.0 °F 89% 29.05 in 10.0 mi Variable 6.9 mph - 0.00 in   Overcast
8:53 PM 33.1 °F 27.7 °F 30.0 °F 89% 29.04 in 6.0 mi Variable 5.8 mph 16.1 mph 0.00 in Snow Light Snow
9:53 PM 34.0 °F 28.8 °F 28.9 °F 82% 29.05 in 10.0 mi Variable 5.8 mph - 0.00 in   Mostly Cloudy
10:53 PM 34.0 °F 28.0 °F 28.9 °F 82% 29.06 in 10.0 mi South 6.9 mph - 0.00 in   Mostly Cloudy
11:51 PM 33.8 °F 25.8 °F 30.2 °F 87% 29.08 in 2.0 mi SSW 10.4 mph 27.6 mph 0.00 in Snow Light Snow
11:52 PM 34.0 °F 26.6 °F 30.9 °F 89% 29.09 in 2.0 mi SSW 9.2 mph 27.6 mph 0.00 in Snow Light Snow